Location: Unspecified
(50.7693°N, 0.0000°E)
Time: 10:38:44
(UTC+00:00)

Transit 2A - Pass Details

Date: 27 June 2019
Orbit: 600 x 959 km, 66.7° (Epoch: 16 October)

Event Time Altitude Azimuth Distance (km) Brightness Sun altitude
Rises 22:43:19 0° 197° (SSW) 3,619 - -13.9°
Reaches altitude 10° 22:45:56 10° 193° (SSW) 2,684 - -14.0°
Exits shadow 22:47:01 15° 190° (S) 2,308 7.9 -14.0°
Maximum altitude 22:52:03 53° 119° (ESE) 1,157 6.6 -14.3°
Drops below altitude 10° 22:58:01 10° 44° (NE) 2,621 9.2 -14.5°
Sets 23:00:32 0° 40° (NE) 3,527 9.9 -14.6°
